GFSNW_850_spd_273.txt.gz
Wind_Speed
16 13 12 13 14 12 9 7 4 12 17 8 7 9 6 7 22 33 12 6 7 8 5 10 10 9 9 21 16 6 9 1 3 7 6 8 4 6 3 5 5 5 6 2
13 11 11 10 10 12 11 5 12 10 16 5 8 11 17 22 20 20 5 5 6 13 10 6 8 8 7 14 6 2 3 1 3 10 7 2 5 3 2 3 3 3 3 3
11 11 12 11 9 9 9 5 3 12 17 17 13 12 14 16 25 20 20 6 9 11 11 9 7 7 5 20 8 11 7 2 4 7 6 3 6 7 6 5 2 4 1 4
9 10 11 11 9 8 7 4 6 10 4 9 11 15 14 17 18 10 12 9 12 9 8 8 3 7 9 8 6 4 4 2 7 10 8 7 0 6 5 6 6 4 6 5
9 10 11 10 9 8 9 6 7 13 20 18 15 11 17 18 20 9 7 8 16 11 7 8 6 7 7 6 4 3 2 3 3 8 8 8 6 9 9 4 4 4 3 6
9 11 11 9 8 7 3 8 9 10 11 9 10 9 15 17 14 14 20 13 10 8 11 15 20 17 17 14 10 7 4 4 1 6 7 6 4 7 7 2 3 4 2 5
10 10 11 9 9 9 8 11 11 7 8 9 10 21 19 20 15 6 17 22 9 20 20 19 12 17 6 18 11 14 6 4 3 3 4 2 7 9 9 19 14 13 12 13
9 10 11 10 10 11 11 10 4 8 7 14 16 22 19 27 24 6 8 9 22 23 11 4 4 4 4 5 15 9 8 4 1 4 1 4 10 6 6 5 8 11 11 11
10 12 12 11 11 12 12 9 5 11 8 4 16 23 20 10 9 6 6 4 3 2 1 3 4 4 3 2 3 6 7 4 5 2 2 1 2 10 15 7 4 11 15 10
11 11 12 11 11 11 11 4 3 8 13 15 13 8 14 14 13 6 6 3 1 3 1 2 2 3 2 2 6 2 3 3 3 2 2 1 6 11 11 2 2 11 11 10
12 13 12 12 11 11 10 6 2 11 18 26 25 20 25 20 21 5 12 4 1 2 1 2 3 3 6 2 6 8 6 4 0 1 1 2 11 7 5 2 10 12 10 10
12 12 12 11 10 10 9 10 6 9 12 19 16 18 21 17 17 23 10 7 4 7 1 2 2 2 3 4 1 2 3 5 5 5 5 6 12 17 18 15 12 10 11 13
12 12 13 12 10 10 9 12 8 9 11 21 21 22 13 9 12 12 7 5 13 11 6 1 0 5 2 2 3 4 4 9 4 6 5 7 12 18 13 7 6 7 11 12
13 12 11 12 10 9 10 13 7 5 9 6 6 1 23 19 19 8 4 10 16 13 7 4 2 4 5 2 3 4 4 1 4 5 6 19 16 11 7 4 5 4 9 12
13 13 12 10 11 9 11 13 8 5 3 5 16 9 21 13 14 9 6 3 15 18 7 3 2 4 5 3 4 3 4 1 1 3 8 10 3 2 3 4 6 1 8 10
12 12 11 10 8 6 11 1 2 7 7 5 4 9 8 14 17 15 12 7 6 19 18 3 4 5 4 2 3 9 22 19 15 5 9 6 1 2 2 3 4 10 12 9
12 12 10 8 7 12 7 4 2 6 11 4 5 4 6 8 17 15 12 11 16 14 7 4 6 5 5 2 1 10 17 12 9 6 3 3 3 5 3 2 4 8 8 10
12 10 8 7 4 8 8 6 5 6 7 6 4 2 9 5 7 10 16 13 12 5 2 3 3 4 4 1 10 16 12 7 3 4 1 3 5 1 2 6 13 16 19 17
8 7 4 3 4 4 6 7 5 6 7 6 4 6 5 22 17 11 11 10 3 8 2 2 2 3 3 7 16 12 9 5 7 2 2 7 10 12 2 2 9 10 12 10
6 3 1 3 5 9 6 4 3 3 6 6 4 2 3 5 10 5 7 5 4 3 5 8 2 3 14 20 20 14 10 7 3 2 3 11 18 18 12 7 7 7 11 3
1 2 1 2 4 3 4 4 6 8 5 9 7 6 2 6 3 1 9 3 4 4 5 6 4 3 7 22 20 15 12 9 16 15 14 7 4 8 12 20 22 15 12 13
1 3 1 2 2 2 4 4 4 5 4 9 12 8 7 6 7 6 7 3 3 5 12 4 4 3 26 22 19 17 14 19 17 17 20 15 13 14 18 23 21 17 17 12
2 1 1 3 4 5 4 7 4 3 6 8 17 6 9 7 16 4 4 5 1 9 3 4 2 18 27 25 21 21 21 18 15 17 18 18 20 22 22 27 23 18 19 16
3 4 3 3 4 5 2 6 4 9 7 10 16 12 9 7 2 3 6 4 4 3 5 3 4 22 23 22 26 27 28 22 18 17 17 19 21 23 23 25 25 24 23 20
2 3 3 5 9 17 21 18 15 8 12 7 3 10 11 4 5 1 2 2 3 5 3 4 17 25 27 15 23 27 25 21 19 13 14 14 17 21 24 23 21 19 16 11
3 5 4 7 12 8 11 12 8 11 11 7 5 4 2 4 3 2 2 3 2 2 3 18 23 29 33 31 24 24 23 19 17 18 19 19 19 17 16 14 13 12 12 12
4 5 8 13 11 10 13 18 14 13 7 3 5 4 5 4 2 4 3 0 2 6 17 20 24 27 30 28 25 23 22 23 21 17 15 19 17 13 12 11 9 9 9 8

GFSNW_850_spd_279.txt.gz
Wind_Speed
16 17 19 16 14 13 11 6 3 8 24 5 2 2 6 5 3 7 5 2 6 1 6 6 4 10 11 22 14 10 6 5 4 10 2 4 5 3 6 5 4 0 3 6
14 17 18 17 19 15 15 11 4 10 7 3 2 4 3 4 3 4 3 4 3 3 3 3 6 7 7 13 9 10 8 0 2 10 7 6 1 3 5 6 4 6 6 6
12 15 17 15 15 14 14 5 3 1 6 1 3 2 3 3 9 6 8 5 2 2 2 3 2 4 2 10 14 12 12 4 7 7 6 3 5 3 4 5 4 4 6 4
9 12 16 13 13 12 9 4 2 4 2 1 1 3 2 3 3 4 4 3 5 3 1 4 1 1 3 5 19 6 6 6 3 5 3 4 4 3 5 6 5 5 4 6
10 9 13 14 11 11 5 4 5 8 5 6 2 2 3 2 4 4 6 5 3 1 5 5 3 3 0 5 2 4 2 2 3 3 4 1 3 5 7 4 2 3 3 1
11 10 12 12 11 10 4 5 2 3 6 5 2 2 3 4 8 11 21 11 5 7 13 12 9 10 8 2 5 4 4 6 4 5 3 5 4 3 6 4 5 3 5 4
10 10 10 11 10 9 7 6 5 2 4 2 2 5 6 7 7 6 16 17 6 12 12 4 7 4 7 3 3 2 6 5 3 3 3 3 5 4 6 12 4 6 6 4
10 10 10 10 9 7 6 5 3 1 3 4 8 8 4 13 17 4 8 22 17 23 9 4 4 5 5 3 6 2 4 6 3 5 4 2 3 5 3 5 3 5 6 6
11 10 10 10 9 9 8 7 7 4 3 5 2 6 9 3 4 7 8 12 15 7 4 3 4 5 5 3 3 6 6 6 5 3 5 7 8 3 7 5 2 3 9 8
12 11 11 10 9 9 9 4 3 3 4 12 8 3 4 7 3 3 8 15 11 7 3 3 3 4 5 5 9 6 3 4 6 3 3 5 5 3 9 3 7 6 11 11
12 11 10 12 10 10 9 4 8 6 6 19 21 16 13 14 9 2 12 12 4 6 3 4 4 3 5 3 6 7 6 6 3 3 4 2 6 2 4 8 13 13 11 11
11 10 10 9 11 11 10 5 8 9 14 13 16 23 24 26 24 20 4 8 10 4 3 1 3 2 1 3 3 2 2 6 6 5 5 4 5 7 25 21 17 11 14 11
11 10 11 10 9 11 12 11 7 6 10 19 24 28 21 21 24 24 7 6 5 9 13 4 3 3 4 4 3 4 3 3 5 4 4 3 18 20 16 15 20 18 13 12
11 11 12 11 10 11 13 12 8 7 6 4 11 9 10 14 19 20 17 24 28 27 22 7 3 3 4 3 3 4 3 4 6 3 4 12 11 17 20 22 21 20 19 18
12 11 11 11 12 11 12 13 10 11 10 4 12 23 19 18 14 17 15 24 24 22 5 3 3 1 4 2 2 3 0 7 5 5 15 7 12 16 17 22 19 17 16 19
12 13 13 13 13 11 7 4 3 9 6 4 4 6 11 16 15 17 12 15 15 10 4 5 5 1 4 4 2 5 1 7 19 11 16 16 17 15 16 21 20 18 17 14
12 13 13 13 13 12 9 4 7 13 5 4 5 6 8 21 16 8 9 13 13 8 4 2 4 2 4 3 4 10 15 19 28 27 26 19 17 23 23 24 22 19 17 16
12 13 13 12 12 14 14 15 7 5 6 6 3 4 4 17 5 2 1 3 8 5 5 3 1 2 3 3 2 17 20 24 21 17 16 22 26 30 27 23 20 16 17 17
15 15 12 12 8 6 4 7 13 11 8 5 4 3 4 7 8 9 1 0 2 6 3 3 2 2 2 7 19 22 26 17 23 23 23 28 31 30 27 22 19 16 19 16
12 8 3 4 4 4 6 7 10 8 10 8 4 4 3 4 4 4 10 2 2 4 4 11 2 2 3 28 27 25 17 25 23 26 24 28 32 31 24 18 16 13 16 18
1 2 4 5 5 6 6 6 8 9 4 9 8 11 3 2 3 4 4 1 3 3 0 2 2 2 3 22 18 18 26 24 17 13 20 21 24 26 22 18 19 17 17 17
4 8 11 6 3 5 3 4 5 5 6 9 8 9 5 3 5 3 1 2 2 3 1 5 4 4 9 25 23 26 25 21 22 23 25 24 21 20 20 21 18 16 14 13
7 3 3 3 3 1 4 6 3 2 2 8 9 4 4 5 6 6 3 5 2 2 2 4 4 8 23 31 31 27 25 24 24 24 23 22 20 17 17 19 17 14 14 15
3 3 4 2 3 4 4 3 4 7 6 6 17 7 4 5 5 4 3 3 1 2 4 5 4 20 27 35 34 34 31 28 26 24 23 22 21 20 17 15 15 14 16 15
3 3 3 5 8 13 19 20 9 7 8 9 9 7 5 3 5 4 2 2 1 2 2 3 17 24 33 36 34 32 30 27 26 28 27 25 25 25 24 21 19 17 17 16
3 5 4 8 9 8 9 10 6 7 2 16 4 3 3 3 4 3 4 4 4 2 2 13 25 26 29 33 29 28 27 27 29 26 26 27 25 24 24 21 18 15 13 13
4 6 13 21 13 16 12 10 5 5 5 3 3 3 3 3 2 3 4 3 1 5 13 23 28 32 33 29 27 28 26 27 26 27 27 26 24 22 18 16 15 14 13 12

GFSNW_850_spd_285.txt.gz
Wind_Speed
16 18 20 19 20 15 10 2 2 11 7 3 1 3 4 1 2 2 2 1 2 4 7 6 6 8 6 13 17 10 5 1 2 2 4 2 1 6 6 4 4 1 2 2
17 18 19 17 18 19 15 5 2 5 3 3 3 2 2 2 1 2 2 2 2 1 4 5 5 6 3 16 12 11 9 4 2 4 4 4 3 4 3 5 3 5 2 0
16 17 16 16 16 15 10 3 1 1 1 3 2 4 2 2 2 2 3 3 2 1 2 2 7 5 4 12 11 12 16 5 7 7 3 5 5 5 6 6 5 7 4 2
16 15 14 14 14 11 7 5 2 2 2 2 1 0 2 2 1 2 2 0 3 5 2 3 3 4 4 3 6 7 10 10 5 3 2 2 5 10 11 9 4 4 4 3
17 14 14 12 12 8 6 3 3 3 1 2 2 1 2 2 1 2 2 0 8 5 3 5 3 5 3 3 5 8 4 7 7 4 3 2 3 2 8 4 7 5 6 3
16 15 12 10 11 10 5 5 5 2 3 1 2 2 2 3 1 1 4 4 5 6 1 11 15 13 9 2 6 9 10 8 6 6 3 5 4 3 5 4 5 9 6 6
17 14 12 9 9 10 8 8 4 3 1 1 2 1 2 1 3 3 4 8 2 2 18 19 4 4 2 6 2 3 7 8 1 4 6 6 3 1 4 11 4 5 14 10
13 15 11 8 5 6 7 6 3 2 1 2 2 2 2 5 4 2 4 5 3 17 11 3 1 2 3 4 4 2 4 6 4 5 5 3 3 8 8 4 5 5 10 9
11 13 12 8 4 3 4 4 2 1 1 1 2 2 3 2 3 2 3 6 9 4 2 2 5 5 4 5 5 3 4 4 4 4 5 7 6 16 5 9 7 9 9 10
9 11 11 10 5 3 2 1 1 1 2 3 2 2 1 2 1 3 3 10 4 6 2 4 4 5 2 7 11 6 4 3 5 5 3 1 5 12 11 5 6 19 14 10
8 8 10 10 8 4 1 2 2 5 4 9 7 3 1 2 2 3 5 4 2 3 3 3 2 4 5 3 3 6 6 7 4 3 4 4 15 12 10 6 19 22 15 12
8 7 9 9 8 8 2 2 4 5 7 8 10 15 14 15 12 7 4 3 4 1 2 1 3 3 2 4 5 1 5 3 7 5 4 2 24 5 8 22 29 17 17 13
7 7 8 8 7 8 6 5 6 7 7 15 16 13 9 15 21 17 6 4 2 3 3 2 2 6 2 5 4 4 2 1 4 6 3 7 12 10 22 24 22 22 15 13
6 7 8 7 6 8 9 7 4 5 3 4 5 3 6 5 11 19 24 18 4 3 7 3 3 4 2 2 1 3 2 10 8 5 5 11 7 16 28 24 23 20 16 11
6 7 8 7 8 10 12 12 9 10 6 4 11 26 15 7 20 22 19 20 20 9 3 4 4 4 3 2 2 4 9 8 7 6 23 6 23 25 27 27 23 19 15 15
8 9 9 10 10 10 7 3 4 12 15 3 4 8 13 10 5 18 22 22 19 9 5 4 5 5 3 3 4 4 12 13 9 7 26 15 27 29 26 26 22 18 15 15
8 7 8 9 11 9 6 2 2 7 9 3 5 5 4 3 11 9 9 15 10 10 4 5 5 4 5 3 4 11 15 15 8 32 28 21 25 22 24 23 22 19 16 14
6 7 9 11 13 13 10 10 10 13 4 3 3 5 5 10 8 7 9 9 11 10 3 3 4 4 4 5 5 10 14 15 22 26 23 32 28 28 23 23 23 20 16 15
9 11 15 16 11 6 2 9 12 15 9 3 3 3 3 5 11 10 11 9 5 5 2 3 2 3 6 5 17 20 28 25 31 21 24 31 32 28 26 25 22 20 18 16
10 10 5 4 3 6 11 5 7 9 7 7 5 4 4 7 11 8 8 2 2 2 4 2 4 5 8 8 13 19 24 35 35 31 23 25 25 28 27 24 21 19 19 17
3 2 3 3 5 9 6 6 7 9 5 8 10 21 10 7 6 5 4 4 3 3 4 4 3 4 3 13 19 22 28 32 29 27 31 30 31 31 28 23 20 18 18 16
5 8 11 6 4 5 5 4 5 5 5 8 8 12 21 9 10 5 4 1 2 4 1 3 4 3 9 18 24 26 25 26 21 21 26 28 29 29 28 24 22 20 17 16
7 3 3 3 4 3 4 6 4 4 5 6 7 6 12 6 13 4 5 7 4 4 3 5 4 4 14 21 18 25 25 22 23 23 25 24 28 26 23 23 20 20 19 18
3 4 3 3 5 5 5 4 3 6 10 20 14 9 6 10 4 4 7 2 4 6 5 6 4 15 18 21 22 24 23 19 22 26 26 26 28 25 21 19 21 22 21 20
4 4 4 6 8 8 8 16 17 29 31 20 4 4 9 2 3 1 4 7 7 8 6 4 12 20 23 23 23 23 24 26 28 28 30 30 26 23 22 21 22 22 22 21
4 6 5 9 11 12 17 19 22 22 16 14 9 4 4 2 2 1 5 4 6 3 1 5 17 26 24 25 25 24 26 27 29 30 29 26 24 23 24 24 23 22 21 19
4 6 11 21 20 17 15 8 13 9 6 3 4 3 3 4 3 4 4 2 1 1 5 14 19 24 28 31 23 25 28 29 29 30 28 27 27 27 27 27 25 23 21 19

GFSNW_850_spd_291.txt.gz
Wind_Speed
19 16 15 16 18 12 5 8 8 10 18 16 20 16 25 3 10 11 10 10 20 22 22 22 19 19 11 24 24 21 17 11 16 16 17 10 10 10 8 5 11 4 10 11
18 17 14 14 15 17 13 7 4 9 18 12 14 22 26 8 10 12 10 10 10 18 20 18 16 15 19 21 18 22 17 11 13 16 9 10 9 12 11 9 16 2 5 10
18 18 14 12 12 13 10 6 6 10 19 26 11 19 11 15 9 2 3 4 9 9 14 17 18 16 11 13 24 25 19 19 13 12 14 16 16 12 8 11 5 10 8 14
17 18 13 12 10 10 7 9 4 3 11 14 14 17 16 18 13 10 9 8 14 14 12 17 15 17 14 12 12 21 19 19 12 8 4 5 12 10 9 12 3 4 16 12
16 17 15 11 9 5 3 8 6 7 13 2 15 7 12 19 15 12 12 9 8 8 16 17 15 18 13 17 17 19 22 16 15 12 10 6 8 13 11 8 1 7 4 11
14 15 16 10 7 5 4 7 9 9 5 10 11 10 9 15 10 8 8 5 4 15 10 12 13 2 10 20 17 19 22 17 13 13 10 10 11 10 8 7 5 6 7 9
12 14 14 10 6 6 3 8 8 11 8 7 9 2 2 5 6 5 11 5 9 7 6 7 8 8 8 1 19 21 20 21 11 10 14 15 9 17 13 7 5 5 7 9
11 11 14 12 6 4 4 7 5 8 9 5 5 3 5 5 4 9 5 4 4 7 8 9 13 12 14 13 14 16 20 15 13 11 14 11 6 6 7 8 9 5 6 12
10 10 12 12 6 4 2 5 5 7 9 3 9 4 5 9 10 11 10 4 5 7 7 11 11 12 14 15 17 17 16 17 12 14 13 16 13 17 15 10 8 8 13 15
10 9 9 12 8 4 3 4 7 4 13 3 3 4 7 7 8 4 6 1 7 7 8 9 9 13 15 14 20 16 15 14 16 11 13 12 11 18 10 10 10 19 20 18
10 8 9 10 10 6 2 3 5 3 10 8 3 7 7 4 7 7 8 6 8 5 10 10 9 10 10 13 19 22 15 14 13 13 11 11 21 15 10 5 17 20 20 16
9 8 9 9 10 8 1 2 7 6 8 12 7 12 12 10 4 7 5 6 6 9 5 6 4 6 4 14 11 20 18 17 13 14 14 14 25 14 14 12 17 19 17 16
8 7 7 8 9 8 3 4 7 8 12 16 17 15 16 15 15 9 6 2 3 1 6 8 4 4 7 9 11 15 16 4 11 13 8 16 22 13 16 15 19 18 18 18
8 6 6 8 7 8 8 2 6 5 7 6 8 7 10 11 13 15 16 8 4 5 5 7 5 6 0 10 8 8 8 12 13 5 5 12 18 18 18 17 19 19 19 18
6 6 6 7 8 10 9 6 6 5 5 8 12 10 13 12 12 14 14 14 12 9 8 6 7 10 6 10 8 9 6 8 11 7 16 12 21 21 19 21 22 23 23 19
6 7 6 8 7 9 6 3 1 3 5 7 4 6 5 9 17 17 15 14 14 13 9 8 14 10 2 7 11 14 10 12 14 11 21 22 19 21 19 22 24 24 22 22
4 5 5 5 6 7 7 4 4 2 3 5 5 4 10 12 11 16 17 17 15 13 14 13 17 12 8 10 13 17 23 15 10 8 3 12 18 26 26 26 25 23 22 22
4 5 6 7 10 8 1 4 7 1 3 4 4 3 3 13 11 13 17 17 17 14 15 11 14 19 10 8 17 24 22 16 13 10 15 15 18 23 28 28 28 27 25 24
7 9 8 8 3 3 1 5 5 4 2 2 5 5 4 9 15 14 15 14 8 13 9 15 11 12 11 12 18 16 24 11 11 16 19 16 25 29 29 29 29 27 25 24
9 6 2 3 3 3 3 4 6 4 5 3 5 12 3 6 13 9 8 1 7 10 14 15 15 16 27 25 17 13 13 13 14 15 19 21 27 31 30 29 26 24 25 25
2 1 1 2 1 5 4 5 5 8 7 11 11 16 10 7 5 3 12 5 6 11 10 15 12 17 20 29 27 23 19 18 20 21 24 30 33 32 32 28 25 25 25 25
3 4 4 1 3 5 4 4 5 5 5 8 11 12 17 8 3 3 4 4 4 7 13 16 20 15 23 31 34 30 21 19 20 22 21 25 28 29 28 27 26 26 24 24
2 3 2 3 3 3 4 5 4 4 6 6 8 3 5 12 8 5 4 5 7 7 8 16 13 18 31 25 28 26 20 18 21 23 24 28 28 27 27 28 27 26 25 23
4 4 4 5 6 6 6 8 5 5 6 5 5 2 4 7 9 4 5 6 5 11 12 17 12 24 22 21 21 20 21 24 26 28 31 32 29 28 27 26 27 27 26 24
4 4 5 7 10 7 4 3 9 9 2 2 1 3 5 5 4 5 5 5 7 6 14 10 14 17 20 20 21 22 23 24 30 31 33 32 32 30 29 26 25 25 25 24
5 7 6 8 7 10 11 11 11 10 4 2 1 1 4 8 4 7 7 7 6 9 9 18 19 16 17 19 22 25 27 28 31 33 34 32 30 31 30 27 25 24 24 23
5 8 14 17 14 12 17 17 17 12 5 4 5 7 9 4 6 9 8 7 7 15 21 14 14 20 20 24 25 26 29 31 32 33 32 31 30 30 29 29 25 23 22 21